Zurück zum Katalog

ONEWEB-0128

AktivKommunikationPO
NORAD 47274·PAYLOAD·🇬🇧 United Kingdom

Gestartet Dec 18, 2020 von Vostochny Cosmodrome

Loading…

Nächste Überflüge (nächste 24 Stunden)

TLE

AktuellSource: CelesTrak SupGP

Epoche: Sep 14, 2026, 20:19 UTC

1 47274C 20100S   26257.84670556 -.00001980  00000+0 -55121-2 0  2572
2 47274  87.8968 332.8774 0002059  93.7114 307.4908 13.12441466    11

Verfolge ONEWEB-0128 in Echtzeit mit AllMySat

Download on the App Store